星链-31450 (STARLINK-31450 )

导读 | 星芒AI

STARLINK-31450 是 SpaceX Starlink 项目中的一颗低轨通信卫星,旨在为全球用户提供高速互联网服务。该卫星于2023年发射,运行在约550公里高的近地轨道,采用先进的星间激光链路技术,提升数据传输效率。作为 Starlink 卫星群的一部分,它支持全球偏远地区的网络接入,助力实现全球宽带覆盖目标。

基本信息
目录编号:
59006
目录名称:
STARLINK-31450
国际标识:
2024-036J
轨道中心:
EARTH
卫星名称:
星链-31450
卫星全名:
星链-31450 (STARLINK-31450 )
卫星状态:
在轨 (已飞行618 天)
发射日期:
2024-02-23 UTC
国别 :
美国 (US)
星等 :
--
轨道信息
数据来源 国际轨道数据
星历时间: 2025-11-01T14:30:02+0800
1天前
查看轨道信息
半长轴: 6853.385km
偏心率: 0.0001341
轨道倾角: 53.161°
近地点辐角 76.985°
升交点赤经 314.486°
平近点角 283.130°
近地点: 474.33km
远地点: 476.17km
周期: 94.106分钟
每日圈数: 15.301891
详细信息
固有亮度:
5
最大亮度:
0.3
卫星平台:
Starlink v2.0 mini
覆盖范围:
全球
运营商:
太空探索技术公司
运营商所在国:
美国
制造商(研发单位):
太空探索技术公司
制造商所在国:
美国
使用方式:
暂无
卫星简介
星链(Starlink)计划是由太空探索技术公司(SpaceX)提出的一个巨型低轨卫星互联网星座项目,计划在2019年至2024年间在太空搭建由约1.2万颗卫星组成的“星链”网络,其中1584颗将部署在地球上空550千米处的近地轨道,并从2020年开始工作。该卫星仍在工作。
2D轨道图
3D轨道图
轨道高度分析图
轨道倾角分析图
轨道综合分析图
查看轨道综合分析图